Lebanon, NH

7:32 PM EDT on April 27, 2017 (GMT -0400)
Lebanon Municipal

Weather History for KLEB - March, 2014

Change the Weather History Date:

Friday, March 7, 2014

  Actual Average Record
Temperature  
Mean Temperature 16 °F -  
Max Temperature 39 °F 38 °F 65 °F (1974)
Min Temperature -6 °F 18 °F -23 °F (2007)
Degree Days  
Heating Degree Days 48    
Moisture  
Dew Point 0 °F    
Average Humidity 53    
Maximum Humidity 76    
Minimum Humidity 22    
Precipitation  
Precipitation 0.00 in - - ()
Sea Level Pressure  
Sea Level Pressure 30.25 in    
Wind  
Wind Speed 2 mph (South)    
Max Wind Speed 15 mph    
Max Gust Speed -    
Visibility 10 miles    
Events      
Averages and records for this station are not official NWS values.
T = Trace of Precipitation, MM = Missing Value Source: NWS Daily Summary

Daily Weather History Graph

Daily Weather History Graph

Search for Another Location

Airport or City:

Trip Planner

Search our weather history database for the weather conditions in past years. The results will help you decide how hot, cold, wet, or windy it might be!

Date:

Astronomy

Mar. 07, 2014 Rise Set
Actual Time 6:15 AM EST 5:45 PM EST
Civil Twilight 5:46 AM EST 6:14 PM EST
Nautical Twilight 5:13 AM EST 6:47 PM EST
Astronomical Twilight 4:40 AM EST 7:20 PM EST
Moon 9:54 AM EST (3/7) No Moon Set
Length of Visible Light 12h 27m
Length of Day
11h 29m
Waxing Crescent, 42% of the Moon is Illuminated
Mar 7
Waxing Crescent
Mar 8
First Quarter
Mar 16
Full
Mar 23
Last Quarter
Mar 30
New

Hourly Weather History & Observations

Time (EST) Temp. Windchill Dew Point Humidity Pressure Visibility Wind Dir Wind Speed Gust Speed Precip Events Conditions
12:53 AM -0.9 °F - -9.0 °F 69% 30.51 in 10.0 mi Calm Calm - N/A   Clear
1:53 AM -2.0 °F - -9.9 °F 69% 30.48 in 10.0 mi Calm Calm - N/A   Clear
2:53 AM -2.0 °F - -8.0 °F 76% 30.48 in 10.0 mi Calm Calm - N/A   Clear
3:53 AM -5.1 °F - -11.0 °F 76% 30.44 in 10.0 mi Calm Calm - N/A   Clear
4:53 AM -5.1 °F - -11.0 °F 76% 30.44 in 10.0 mi Calm Calm - N/A   Clear
5:53 AM -5.1 °F - -11.9 °F 72% 30.44 in 10.0 mi Calm Calm - N/A   Clear
6:53 AM -6.0 °F - -11.9 °F 75% 30.44 in 9.0 mi Calm Calm - N/A   Clear
7:53 AM 1.9 °F - -4.0 °F 76% 30.44 in 10.0 mi Calm Calm - N/A   Clear
8:53 AM 10.0 °F - -2.9 °F 56% 30.41 in 10.0 mi Calm Calm - N/A   Clear
9:53 AM 17.1 °F - -2.9 °F 41% 30.37 in 10.0 mi Calm Calm - N/A   Clear
10:53 AM 25.0 °F 20.7 °F -0.9 °F 33% 30.31 in 10.0 mi NE 3.5 mph - N/A   Clear
11:53 AM 30.9 °F 22.2 °F -0.0 °F 27% 30.27 in 10.0 mi South 10.4 mph - N/A   Clear
12:53 PM 35.1 °F 25.5 °F -0.0 °F 23% 30.21 in 10.0 mi South 15.0 mph - N/A   Clear
1:53 PM 37.0 °F 31.0 °F 1.9 °F 23% 30.18 in 10.0 mi South 8.1 mph - N/A   Clear
2:53 PM 37.9 °F 32.1 °F 1.9 °F 22% 30.14 in 10.0 mi SW 8.1 mph - N/A   Clear
3:53 PM 39.0 °F 33.4 °F 3.9 °F 23% 30.11 in 10.0 mi South 8.1 mph - N/A   Clear
4:53 PM 37.9 °F 32.7 °F 3.9 °F 24% 30.09 in 10.0 mi SSW 6.9 mph - N/A   Clear
5:53 PM 32.0 °F 26.4 °F 10.9 °F 42% 30.08 in 10.0 mi South 5.8 mph - N/A   Clear
6:53 PM 28.0 °F 22.8 °F 8.1 °F 43% 30.09 in 10.0 mi South 4.6 mph - N/A   Clear
7:53 PM 23.0 °F - 10.9 °F 60% 30.07 in 10.0 mi Calm Calm - N/A   Clear
8:53 PM 19.9 °F - 10.0 °F 65% 30.06 in 10.0 mi Calm Calm - N/A   Clear
9:53 PM 19.0 °F - 10.0 °F 68% 30.03 in 10.0 mi Calm Calm - N/A   Clear
10:53 PM 17.1 °F - 9.0 °F 71% 29.99 in 10.0 mi Calm Calm - N/A   Clear
11:53 PM 15.1 °F - 8.1 °F 74% 29.97 in 10.0 mi Calm Calm - N/A   Clear